HS6TUX-4 Weather Reports


time (UTC)temp
F
wind
direction
speed
knots
gust
knots
rain 1hr
in
rain 24hr
in
rain mn
in
humidity
%
barometer
mb
20260508025912 97 0 0.0 0.0 0.00 0.00 0.00 99 734.0
20260508024344 95 0 0.0 0.0 0.00 0.00 0.00 99 733.0
20260508022816 98 0 0.0 0.0 0.00 0.00 0.00 99 735.0
20260508021248 100 0 0.0 0.0 0.00 0.00 0.00 99 736.0
20260508015720 98 0 0.0 0.0 0.00 0.00 0.00 99 735.0
20260508014152 93 0 0.0 0.0 0.00 0.00 0.00 99 732.0
20260508012624 88 0 0.0 0.0 0.00 0.00 0.00 99 729.0
20260508011056 91 0 0.0 0.0 0.00 0.00 0.00 99 731.0
20260508005527 95 0 0.0 0.0 0.00 0.00 0.00 99 733.0
20260508003959 87 0 0.0 0.0 0.00 0.00 0.00 99 728.0
20260508002431 86 0 0.0 0.0 0.00 0.00 0.00 99 728.0
20260508000903 85 0 0.0 0.0 0.00 0.00 0.00 99 727.0
20260507235335 85 0 0.0 0.0 0.00 0.00 0.00 99 727.0
20260507233806 83 0 0.0 0.0 0.00 0.00 0.00 99 725.0
20260507232238 82 0 0.0 0.0 0.00 0.00 0.00 99 725.0
20260507230709 81 0 0.0 0.0 0.00 0.00 0.00 99 724.0
20260507225141 81 0 0.0 0.0 0.00 0.00 0.00 99 724.0
20260507223613 81 0 0.0 0.0 0.00 0.00 0.00 99 725.0
20260507222045 81 0 0.0 0.0 0.00 0.00 0.00 99 724.0
20260507220517 81 0 0.0 0.0 0.00 0.00 0.00 99 724.0
20260507214949 81 0 0.0 0.0 0.00 0.00 0.00 99 724.0
20260507213420 81 0 0.0 0.0 0.00 0.00 0.00 99 724.0
20260507211852 81 0 0.0 0.0 0.00 0.00 0.00 99 724.0
20260507210324 81 0 0.0 0.0 0.00 0.00 0.00 99 724.0
20260507204755 81 0 0.0 0.0 0.00 0.00 0.00 99 724.0
20260507203227 82 0 0.0 0.0 0.00 0.00 0.00 99 725.0
20260507201659 82 0 0.0 0.0 0.00 0.00 0.00 99 725.0
20260507200131 83 0 0.0 0.0 0.00 0.00 0.00 99 725.0
20260507194602 82 0 0.0 0.0 0.00 0.00 0.00 99 725.0
20260507193034 82 0 0.0 0.0 0.00 0.00 0.00 99 725.0
20260507191506 82 0 0.0 0.0 0.00 0.00 0.00 99 725.0
20260507185938 83 0 0.0 0.0 0.00 0.00 0.00 99 725.0
20260507184410 83 0 0.0 0.0 0.00 0.00 0.00 99 726.0
20260507182841 83 0 0.0 0.0 0.00 0.00 0.00 99 726.0
20260507181313 83 0 0.0 0.0 0.00 0.00 0.00 99 726.0
20260507175745 84 0 0.0 0.0 0.00 0.00 0.00 99 726.0
20260507174217 84 0 0.0 0.0 0.00 0.00 0.00 99 726.0
20260507172648 84 0 0.0 0.0 0.00 0.00 0.00 99 726.0
20260507171119 84 0 0.0 0.0 0.00 0.00 0.00 99 726.0
20260507165551 84 0 0.0 0.0 0.00 0.00 0.00 99 726.0
20260507164023 84 0 0.0 0.0 0.00 0.00 0.00 99 726.0
20260507162455 83 0 0.0 0.0 0.00 0.00 0.00 99 726.0
20260507160927 83 0 0.0 0.0 0.00 0.00 0.00 99 726.0
20260507155358 84 0 0.0 0.0 0.00 0.00 0.00 99 726.0
20260507153830 84 0 0.0 0.0 0.00 0.00 0.00 99 726.0
20260507152305 84 0 0.0 0.0 0.00 0.00 0.00 99 726.0
20260507150734 84 0 0.0 0.0 0.00 0.00 0.00 99 726.0
20260507145206 84 0 0.0 0.0 0.00 0.00 0.00 99 726.0
20260507143638 84 0 0.0 0.0 0.00 0.00 0.00 99 726.0
20260507142110 85 0 0.0 0.0 0.00 0.00 0.00 99 726.0
20260507140542 85 0 0.0 0.0 0.00 0.00 0.00 99 726.0
20260507135013 85 0 0.0 0.0 0.00 0.00 0.00 99 726.0
20260507133445 85 0 0.0 0.0 0.00 0.00 0.00 99 727.0
20260507131916 86 0 0.0 0.0 0.00 0.00 0.00 99 727.0
20260507130348 86 0 0.0 0.0 0.00 0.00 0.00 99 727.0
20260507124819 86 0 0.0 0.0 0.00 0.00 0.00 99 727.0
20260507123250 87 0 0.0 0.0 0.00 0.00 0.00 99 728.0
20260507121722 87 0 0.0 0.0 0.00 0.00 0.00 99 728.0
20260507120153 87 0 0.0 0.0 0.00 0.00 0.00 99 728.0
20260507114624 87 0 0.0 0.0 0.00 0.00 0.00 99 728.0
20260507113055 88 0 0.0 0.0 0.00 0.00 0.00 99 728.0
20260507111526 88 0 0.0 0.0 0.00 0.00 0.00 99 728.0
20260507105957 89 0 0.0 0.0 0.00 0.00 0.00 99 729.0
20260507104428 92 0 0.0 0.0 0.00 0.00 0.00 99 731.0
20260507102900 92 0 0.0 0.0 0.00 0.00 0.00 99 731.0
20260507101331 92 0 0.0 0.0 0.00 0.00 0.00 99 731.0
20260507095802 91 0 0.0 0.0 0.00 0.00 0.00 99 730.0
20260507095125 91 0 0.0 0.0 0.00 0.00 0.00 99 730.0
20260507094227 90 0 0.0 0.0 0.00 0.00 0.00 99 730.0
20260507092658 91 0 0.0 0.0 0.00 0.00 0.00 99 730.0
20260507091111 90 0 0.0 0.0 0.00 0.00 0.00 99 730.0
20260507085543 88 0 0.0 0.0 0.00 0.00 0.00 99 729.0
20260507084015 87 0 0.0 0.0 0.00 0.00 0.00 99 728.0
20260507082447 87 0 0.0 0.0 0.00 0.00 0.00 99 728.0
20260507080918 87 0 0.0 0.0 0.00 0.00 0.00 99 728.0
20260507075350 89 0 0.0 0.0 0.00 0.00 0.00 99 729.0
20260507073822 88 0 0.0 0.0 0.00 0.00 0.00 99 729.0
20260507072254 89 0 0.0 0.0 0.00 0.00 0.00 99 729.0
20260507070725 87 0 0.0 0.0 0.00 0.00 0.00 99 728.0
20260507065156 90 0 0.0 0.0 0.00 0.00 0.00 99 730.0
20260507063628 94 0 0.0 0.0 0.00 0.00 0.00 99 732.0
20260507062100 98 0 0.0 0.0 0.00 0.00 0.00 99 735.0
20260507060531 102 0 0.0 0.0 0.00 0.00 0.00 99 737.0
20260507055002 105 0 0.0 0.0 0.00 0.00 0.00 99 739.0
20260507053434 110 0 0.0 0.0 0.00 0.00 0.00 92 743.0
20260507051905 109 0 0.0 0.0 0.00 0.00 0.00 95 742.0
20260507050337 112 0 0.0 0.0 0.00 0.00 0.00 90 744.0
20260507044809 110 0 0.0 0.0 0.00 0.00 0.00 92 742.0
20260507043240 111 0 0.0 0.0 0.00 0.00 0.00 93 743.0
20260507041712 109 0 0.0 0.0 0.00 0.00 0.00 99 742.0
20260507040144 110 0 0.0 0.0 0.00 0.00 0.00 99 743.0
20260507034616 107 0 0.0 0.0 0.00 0.00 0.00 99 740.0
20260507033048 105 0 0.0 0.0 0.00 0.00 0.00 99 739.0
20260507031519 111 0 0.0 0.0 0.00 0.00 0.00 98 743.0